Вернуться в каталог

HIMAWARI 3 AKM

АктивенMEO
NORAD 22266·ROCKET BODY·🇯🇵 Japan

Запущен Aug 2, 1984 с Tanegashima Space Center

Loading…

Ближайшие Пролёты (ближайшие 24 часа)

TLE

СвежийSource: Space-Track

Эпоха: Sep 14, 2026, 19:03 UTC

1 22266U 84080E   26257.79425435  .00000021  00000-0  00000-0 0  9992
2 22266   9.3574 315.6078 0136086 115.5630 236.4012  0.99751001118373

Отслеживайте HIMAWARI 3 AKM в реальном времени с AllMySat

Download on the App Store